Weather History for Prague, Czech Republic

Change the Weather History Date:

Friday, May 10, 2013

  Actual Average Record
Temperature  
Mean Temperature 54 °F -  
Max Temperature 57 °F 67 °F 77 °F (1998)
Min Temperature 50 °F 47 °F 35 °F (2005)
Degree Days  
Heating Degree Days 12    
Growing Degree Days 4 (Base 50)    
Moisture  
Dew Point 55 °F    
Average Humidity 95    
Maximum Humidity 100    
Minimum Humidity 88    
Precipitation  
Precipitation 0.71 in 0.10 in - ()
Sea Level Pressure  
Sea Level Pressure 29.92 in    
Wind  
Wind Speed 5 mph ()    
Max Wind Speed 11 mph    
Max Gust Speed -    
Visibility 5.1 miles    
Events Rain    
Averages and records for this station are not official NWS values.
T = Trace of Precipitation, MM = Missing Value Source: Averaged Metar Reports

Daily Weather History Graph

Daily Weather History Graph

Search for Another Location

Airport:

Trip Planner

Search our weather history database for the weather conditions in past years. The results will help you decide how hot, cold, wet, or windy it might be!

Date:

Astronomy

May. 10, 2013 Rise Set
Actual Time 5:24 AM CEST 8:35 PM CEST
Civil Twilight 4:45 AM CEST 9:14 PM CEST
Nautical Twilight 3:55 AM CEST 10:05 PM CEST
Astronomical Twilight 2:50 AM CEST 11:11 PM CEST
Moon 5:36 AM CEST (5/10) 9:11 PM CEST (5/10)
Length of Visible Light 16h 28m
Length of Day
15h 11m
Waxing Crescent, 0% of the Moon is Illuminated
May 10
Waxing Crescent
May 18
First Quarter
May 25
Full
May 31
Last Quarter
Jun 8
New

Hourly Weather History & Observations

Time (CEST) Temp. Dew Point Humidity Pressure Visibility Wind Dir Wind Speed Gust Speed Precip Events Conditions
12:00 AM 60.8 °F 57.2 °F 88% 29.92 in - Variable 1.2 mph - N/A   Clear
12:30 AM 59.0 °F 57.2 °F 94% 29.92 in - NE 3.5 mph - N/A   Clear
1:00 AM 60.8 °F 59.0 °F 94% 29.89 in - Variable 2.3 mph - N/A   Clear
1:30 AM 59.0 °F 57.2 °F 94% 29.89 in 5.0 mi Calm Calm - N/A   Unknown
2:00 AM 58 °F 57 °F 96% 29.88 in 4 mi West 4.5 mph - -   Mist
2:00 AM 59.0 °F 57.2 °F 94% 29.89 in 4.3 mi West 2.3 mph - N/A   Unknown
2:30 AM 59.0 °F 57.2 °F 94% 29.89 in - North 3.5 mph - N/A   Partly Cloudy
3:00 AM 57.2 °F 57.2 °F 100% 29.89 in 3.7 mi NW 5.8 mph - N/A   Unknown
3:30 AM 57.2 °F 57.2 °F 100% 29.86 in 5.6 mi NNW 5.8 mph - N/A   Unknown
4:00 AM 57.2 °F 55.4 °F 94% 29.86 in 5.0 mi NNW 4.6 mph - N/A   Unknown
4:30 AM 57.2 °F 55.4 °F 94% 29.86 in 4.3 mi WNW 4.6 mph - N/A   Partly Cloudy
5:00 AM 55.4 °F 55.4 °F 100% 29.86 in 5.0 mi West 2.3 mph - N/A   Partly Cloudy
5:24 AM 55.4 °F 55.4 °F 100% 29.86 in 3.7 mi WSW 4.6 mph - N/A Rain Light Rain
5:30 AM 55.4 °F 55.4 °F 100% 29.86 in 3.7 mi WSW 5.8 mph - N/A Rain Light Rain
6:00 AM 57.2 °F 55.4 °F 94% 29.86 in 3.7 mi West 5.8 mph - N/A Rain Light Rain
6:30 AM 57.2 °F 55.4 °F 94% 29.86 in - West 4.6 mph - N/A Rain Rain
7:00 AM 57.2 °F 57.2 °F 100% 29.86 in 2.2 mi West 3.5 mph - N/A Rain Light Rain
7:30 AM 57.2 °F 57.2 °F 100% 29.89 in 1.9 mi NNW 3.5 mph - N/A Rain Light Rain
8:00 AM 58 °F 57 °F 94% 29.88 in 2 mi NW 4.5 mph - - Rain Light Rain
8:00 AM 57.2 °F 57.2 °F 100% 29.89 in 2.5 mi NNW 3.5 mph - N/A Rain Light Rain
8:30 AM 57.2 °F 57.2 °F 100% 29.89 in 2.2 mi WNW 5.8 mph - N/A Rain Light Rain
8:51 AM 57.2 °F 57.2 °F 100% 29.89 in 1.7 mi WNW 5.8 mph - N/A Rain Rain
9:00 AM 57.2 °F 57.2 °F 100% 29.89 in 1.6 mi WNW 5.8 mph - N/A Rain Rain
9:30 AM 57.2 °F 55.4 °F 94% 29.89 in 4.3 mi NW 10.4 mph - N/A Rain Light Rain
9:47 AM 57.2 °F 55.4 °F 94% 29.89 in 3.7 mi NW 9.2 mph - N/A Rain Rain
10:00 AM 57.2 °F 55.4 °F 94% 29.89 in 5.6 mi NW 9.2 mph - N/A Rain Light Rain
10:07 AM 57.2 °F 55.4 °F 94% 29.89 in 6.2 mi NW 8.1 mph - N/A Rain Light Rain
10:30 AM 57.2 °F 55.4 °F 94% 29.89 in 6.2 mi NW 6.9 mph - N/A Rain Light Rain
10:36 AM 57.2 °F 55.4 °F 94% 29.92 in 6.2 mi WNW 8.1 mph - N/A Rain Light Rain
11:00 AM 57.2 °F 55.4 °F 94% 29.92 in 6.2 mi NW 6.9 mph - N/A Rain Light Rain
11:14 AM 55.4 °F 55.4 °F 100% 29.92 in 6.2 mi West 9.2 mph - N/A Rain Rain
11:30 AM 55.4 °F 53.6 °F 94% 29.92 in 3.7 mi WNW 8.1 mph - N/A Rain Rain
12:00 PM 55.4 °F 55.4 °F 100% 29.92 in 4.3 mi WNW 8.1 mph - N/A Rain Rain
12:30 PM 55.4 °F 53.6 °F 94% 29.92 in 4.3 mi WNW 6.9 mph - N/A Rain Rain
12:48 PM 55.4 °F 55.4 °F 100% 29.95 in 6.2 mi WNW 9.2 mph - N/A Rain Light Rain
1:00 PM 55.4 °F 55.4 °F 100% 29.95 in 5.6 mi WNW 8.1 mph - N/A Rain Light Rain
1:30 PM 55.4 °F 53.6 °F 94% 29.95 in 5.6 mi NW 8.1 mph - N/A Rain Light Rain
1:37 PM 55.4 °F 53.6 °F 94% 29.95 in 5.0 mi NW 8.1 mph - N/A Rain Rain
2:00 PM 54 °F 53 °F 97% 29.96 in 5 mi NW 11.2 mph - - Rain Light Rain
2:00 PM 53.6 °F 53.6 °F 100% 29.95 in 5.0 mi NW 9.2 mph - N/A Rain Light Rain
2:13 PM 55.4 °F 53.6 °F 94% 29.95 in 6.2 mi WNW 9.2 mph - N/A Rain Light Rain
2:30 PM 55.4 °F 51.8 °F 88% 29.95 in 6.2 mi West 10.4 mph - N/A Rain Light Rain
3:00 PM 55.4 °F 53.6 °F 94% 29.95 in 6.2 mi WNW 10.4 mph - N/A Rain Rain
3:10 PM 53.6 °F 51.8 °F 94% 29.95 in 6.2 mi West 9.2 mph - N/A Rain Light Rain
3:30 PM 55.4 °F 53.6 °F 94% 29.95 in 6.2 mi West 9.2 mph - N/A   Scattered Clouds
4:00 PM 55.4 °F 53.6 °F 94% 29.95 in 6.2 mi West 5.8 mph - N/A Rain Light Rain
4:30 PM 55.4 °F 53.6 °F 94% 29.95 in 6.2 mi West 8.1 mph - N/A Rain Light Rain
5:00 PM 57.2 °F 53.6 °F 88% 29.95 in 6.2 mi West 5.8 mph - N/A Rain Light Rain
5:30 PM 55.4 °F 53.6 °F 94% 29.95 in 6.2 mi West 8.1 mph - N/A Rain Light Rain
6:00 PM 55.4 °F 51.8 °F 88% 29.95 in 6.2 mi WSW 9.2 mph - N/A Rain Light Rain
6:30 PM 55.4 °F 53.6 °F 94% 29.95 in 6.2 mi WSW 6.9 mph - N/A Rain Light Rain
7:00 PM 55.4 °F 53.6 °F 94% 29.95 in 6.2 mi West 8.1 mph - N/A Rain Light Rain
7:08 PM 55.4 °F 53.6 °F 94% 29.95 in 6.2 mi WSW 6.9 mph - N/A   Partly Cloudy
7:20 PM 55.4 °F 53.6 °F 94% 29.95 in 6.2 mi WSW 8.1 mph - N/A Rain Light Rain
7:30 PM 55.4 °F 53.6 °F 94% 29.95 in 6.2 mi WSW 8.1 mph - N/A Rain Light Rain
8:00 PM 56 °F 54 °F 92% 29.97 in 12 mi West 6.7 mph - - Rain Light Rain
8:00 PM 55.4 °F 53.6 °F 94% 29.98 in 6.2 mi WSW 8.1 mph - N/A Rain Light Rain
8:30 PM 55.4 °F 53.6 °F 94% 29.98 in 6.2 mi West 8.1 mph - N/A Rain Light Rain
9:00 PM 53.6 °F 51.8 °F 94% 29.98 in 6.2 mi West 6.9 mph - N/A   Partly Cloudy
9:30 PM 53.6 °F 51.8 °F 94% 30.01 in - WSW 6.9 mph - N/A   Clear
10:00 PM 53.6 °F 51.8 °F 94% 30.01 in - WSW 6.9 mph - N/A   Clear
10:30 PM 51.8 °F 51.8 °F 100% 30.01 in - WSW 6.9 mph - N/A   Clear
11:00 PM 50.0 °F 50.0 °F 100% 30.01 in - SW 6.9 mph - N/A   Clear
11:30 PM 50.0 °F 50.0 °F 100% 30.01 in - SW 6.9 mph - N/A   Clear